Location: Saint-Gilles les Bains
(21.0539°S, 55.2287°E)
Time: 10:16:28
(UTC+04:00)

ISS - Visible Passes

Search period start: 12 December 2017 00:00
Search period end: 22 December 2017 00:00
Orbit: 403 x 407 km, 51.6° (Epoch: 12 December)

Date Brightness Start Highest point End Pass type
(mag) Time Alt. Az. Time Alt. Az. Time Alt. Az.
19 Dec -1.8 19:26:28 10° NE 19:27:34 11° ENE 19:28:40 10° ENE visible
19 Dec -1.8 21:00:51 10° WNW 21:03:46 29° SW 21:05:22 19° S visible
20 Dec -3.7 20:08:11 10° NW 20:11:27 76° SW 20:14:46 10° SE visible
21 Dec 0.0 04:22:52 10° SSE 04:23:33 10° SE 04:24:13 10° SE visible
21 Dec 0.0 20:55:09 10° SW 20:55:46 10° SW 20:56:23 10° SSW visible
